PAL319 VHHH-RPLL

Flight info

Callsign PAL319
Flight time N/A
Altitude 41000
Route DALOL DCT NOMAN A461 CAB CAB5R
Aircraft A359/H-SDE2E3GHIJ3J4J5LM1ORWXY/LB1D1

Departure

Time N/A
Airport Hong Kong International Airport (VHHH)

Arrival

Time 2026-05-06 11:54
Airport Ninoy Aquino International Airport (RPLL)
Time Latitude Longitude Altitude Speed Heading
2026-05-06 11:19 17.05394 120.00063 40890 ft 497 kts 134°
2026-05-06 11:19 17.00648 120.05284 40886 ft 497 kts 134°
2026-05-06 11:20 16.95876 120.10528 40894 ft 496 kts 134°
2026-05-06 11:20 16.91161 120.15706 40889 ft 496 kts 134°
2026-05-06 11:21 16.86380 120.20954 40898 ft 495 kts 134°
2026-05-06 11:21 16.81648 120.26143 40788 ft 495 kts 134°
2026-05-06 11:21 16.79278 120.28740 40560 ft 494 kts 134°
2026-05-06 11:22 16.76905 120.31340 40313 ft 494 kts 134°
2026-05-06 11:22 16.74518 120.33929 40060 ft 495 kts 136°
2026-05-06 11:22 16.71831 120.36164 39841 ft 493 kts 149°
2026-05-06 11:22 16.68829 120.37922 39621 ft 493 kts 153°
2026-05-06 11:23 16.65782 120.39581 39384 ft 494 kts 153°
2026-05-06 11:23 16.62717 120.41236 39152 ft 495 kts 154°
2026-05-06 11:23 16.59660 120.42884 38930 ft 496 kts 154°
2026-05-06 11:23 16.56606 120.44527 38706 ft 496 kts 154°
2026-05-06 11:24 16.53518 120.46188 38458 ft 497 kts 154°
2026-05-06 11:24 16.50445 120.47840 38194 ft 498 kts 154°
2026-05-06 11:24 16.47410 120.49470 37947 ft 498 kts 154°
2026-05-06 11:24 16.44310 120.51134 37681 ft 499 kts 154°
2026-05-06 11:25 16.41260 120.52772 37065 ft 488 kts 154°
2026-05-06 11:25 16.39230 120.53861 36278 ft 484 kts 154°
2026-05-06 11:25 16.35246 120.55998 34320 ft 488 kts 154°
2026-05-06 11:25 16.33205 120.57091 33227 ft 490 kts 153°
2026-05-06 11:26 16.31194 120.58168 32119 ft 492 kts 154°
2026-05-06 11:26 16.26139 120.60876 29771 ft 487 kts 154°
2026-05-06 11:26 16.23149 120.62478 28336 ft 479 kts 154°
2026-05-06 11:26 16.20206 120.64054 27015 ft 471 kts 153°
2026-05-06 11:27 16.17326 120.65596 26141 ft 456 kts 153°
2026-05-06 11:27 16.14575 120.67069 25590 ft 434 kts 153°
2026-05-06 11:27 16.11954 120.68471 25085 ft 413 kts 153°
2026-05-06 11:27 16.09452 120.69810 24630 ft 395 kts 153°
2026-05-06 11:28 16.07089 120.71073 24046 ft 383 kts 153°
2026-05-06 11:28 16.04705 120.72346 23320 ft 375 kts 153°
2026-05-06 11:28 16.02445 120.73553 22499 ft 369 kts 153°
2026-05-06 11:28 16.00142 120.74783 21659 ft 363 kts 153°
2026-05-06 11:29 15.97902 120.75979 20846 ft 359 kts 153°
2026-05-06 11:29 15.96444 120.76757 20323 ft 356 kts 153°
2026-05-06 11:29 15.93493 120.78332 19805 ft 363 kts 153°
2026-05-06 11:29 15.91231 120.79538 19681 ft 375 kts 153°
2026-05-06 11:30 15.88862 120.80801 19627 ft 393 kts 153°
2026-05-06 11:30 15.86366 120.82132 19577 ft 400 kts 153°
2026-05-06 11:30 15.83985 120.83402 19248 ft 374 kts 153°
2026-05-06 11:30 15.81723 120.84608 18766 ft 356 kts 153°
2026-05-06 11:31 15.79552 120.85765 18077 ft 347 kts 153°
2026-05-06 11:31 15.77425 120.86897 17254 ft 341 kts 153°
2026-05-06 11:31 15.75327 120.88014 16453 ft 334 kts 152°
2026-05-06 11:31 15.73298 120.89094 15690 ft 329 kts 152°
2026-05-06 11:32 15.71250 120.90184 14899 ft 325 kts 152°
2026-05-06 11:32 15.69249 120.91249 14137 ft 321 kts 152°
2026-05-06 11:32 15.67288 120.92293 13781 ft 323 kts 152°
2026-05-06 11:32 15.65291 120.93355 13652 ft 319 kts 152°
2026-05-06 11:33 15.63316 120.94406 13516 ft 318 kts 152°
2026-05-06 11:33 15.61359 120.95447 13398 ft 317 kts 151°
2026-05-06 11:33 15.59417 120.96481 13258 ft 316 kts 151°
2026-05-06 11:33 15.57461 120.97521 13141 ft 315 kts 151°
2026-05-06 11:34 15.55519 120.98554 13030 ft 314 kts 151°
2026-05-06 11:34 15.53569 120.99590 12884 ft 313 kts 151°
2026-05-06 11:34 15.51627 121.00619 12725 ft 313 kts 152°
2026-05-06 11:34 15.49618 121.01450 12474 ft 312 kts 163°
2026-05-06 11:35 15.47464 121.01715 12228 ft 313 kts 180°
2026-05-06 11:35 15.45329 121.01322 12001 ft 313 kts 197°
2026-05-06 11:35 15.43277 121.00544 11752 ft 313 kts 200°
2026-05-06 11:35 15.41249 120.99722 11507 ft 312 kts 200°
2026-05-06 11:36 15.39259 120.98927 11283 ft 311 kts 199°
2026-05-06 11:36 15.37210 120.98114 11067 ft 309 kts 199°
2026-05-06 11:36 15.35226 120.97330 10955 ft 309 kts 199°
2026-05-06 11:36 15.33166 120.96631 10906 ft 325 kts 194°
2026-05-06 11:37 15.30860 120.95974 10865 ft 358 kts 194°
2026-05-06 11:37 15.28410 120.95289 10820 ft 370 kts 193°
2026-05-06 11:37 15.25915 120.94600 10669 ft 372 kts 193°
2026-05-06 11:37 15.23424 120.93918 10428 ft 370 kts 193°
2026-05-06 11:38 15.20940 120.93243 10199 ft 368 kts 193°
2026-05-06 11:38 15.18454 120.92568 9969 ft 367 kts 193°
2026-05-06 11:38 15.16015 120.91907 9793 ft 354 kts 193°
2026-05-06 11:38 15.13681 120.91277 9565 ft 341 kts 193°
2026-05-06 11:39 15.11421 120.90666 9319 ft 329 kts 193°
2026-05-06 11:39 15.09239 120.90076 9091 ft 318 kts 193°
2026-05-06 11:39 15.07132 120.89505 8837 ft 308 kts 193°
2026-05-06 11:39 15.05084 120.88952 8592 ft 300 kts 193°
2026-05-06 11:40 15.03098 120.88416 8348 ft 295 kts 193°
2026-05-06 11:40 15.01108 120.87880 8104 ft 293 kts 193°
2026-05-06 11:40 14.99162 120.87356 7863 ft 293 kts 193°
2026-05-06 11:40 14.97184 120.86822 7627 ft 292 kts 193°
2026-05-06 11:41 14.95221 120.86293 7383 ft 291 kts 193°
2026-05-06 11:41 14.93270 120.85766 7151 ft 290 kts 193°
2026-05-06 11:41 14.91320 120.85241 6922 ft 289 kts 193°
2026-05-06 11:41 14.89378 120.84718 6674 ft 288 kts 193°
2026-05-06 11:42 14.87446 120.84199 6437 ft 286 kts 193°
2026-05-06 11:42 14.85523 120.83680 6212 ft 285 kts 193°
2026-05-06 11:42 14.83608 120.83164 5981 ft 284 kts 193°
2026-05-06 11:42 14.81696 120.82650 5729 ft 283 kts 193°
2026-05-06 11:43 14.79792 120.82136 5476 ft 281 kts 193°
2026-05-06 11:43 14.77905 120.81625 5250 ft 279 kts 193°
2026-05-06 11:43 14.76035 120.81122 5029 ft 278 kts 193°
2026-05-06 11:44 14.72295 120.80114 4986 ft 277 kts 193°
2026-05-06 11:44 14.70423 120.79611 4989 ft 277 kts 193°
2026-05-06 11:44 14.68571 120.79113 4988 ft 278 kts 193°
2026-05-06 11:44 14.66726 120.78617 4990 ft 277 kts 193°
2026-05-06 11:45 14.64847 120.78111 4988 ft 277 kts 193°
2026-05-06 11:45 14.62982 120.77610 4984 ft 271 kts 193°
2026-05-06 11:45 14.61211 120.77130 4980 ft 254 kts 192°
2026-05-06 11:45 14.59547 120.76682 4981 ft 239 kts 192°
2026-05-06 11:46 14.57963 120.76258 4920 ft 234 kts 193°
2026-05-06 11:46 14.56392 120.75836 4803 ft 233 kts 192°
2026-05-06 11:46 14.54819 120.75423 4680 ft 232 kts 191°
2026-05-06 11:46 14.53253 120.75161 4567 ft 230 kts 182°
2026-05-06 11:47 14.51663 120.75189 4438 ft 228 kts 171°
2026-05-06 11:47 14.50123 120.75524 4321 ft 226 kts 160°
2026-05-06 11:47 14.48677 120.76142 4201 ft 224 kts 150°
2026-05-06 11:47 14.47313 120.76934 4072 ft 223 kts 148°
2026-05-06 11:48 14.45984 120.77737 3965 ft 223 kts 148°
2026-05-06 11:48 14.44647 120.78538 3849 ft 219 kts 148°
2026-05-06 11:48 14.43359 120.79304 3731 ft 210 kts 148°
2026-05-06 11:48 14.42117 120.80046 3637 ft 200 kts 147°
2026-05-06 11:49 14.41070 120.80918 3527 ft 194 kts 127°
2026-05-06 11:49 14.40574 120.82174 3356 ft 190 kts 89°
2026-05-06 11:49 14.40774 120.83508 3170 ft 189 kts 72°
2026-05-06 11:49 14.41349 120.84728 3038 ft 188 kts 61°
2026-05-06 11:50 14.41985 120.85888 2971 ft 184 kts 63°
2026-05-06 11:50 14.42598 120.87030 2780 ft 183 kts 62°
2026-05-06 11:50 14.43227 120.88156 2527 ft 176 kts 62°
2026-05-06 11:50 14.43824 120.89238 2303 ft 172 kts 61°
2026-05-06 11:51 14.44407 120.90286 2113 ft 171 kts 62°
2026-05-06 11:51 14.44808 120.91016 1917 ft 172 kts 62°
2026-05-06 11:51 14.45581 120.92417 1660 ft 170 kts 62°
2026-05-06 11:51 14.46163 120.93465 1406 ft 166 kts 62°
2026-05-06 11:52 14.46713 120.94461 1221 ft 154 kts 63°
2026-05-06 11:52 14.47226 120.95389 1052 ft 143 kts 63°
2026-05-06 11:52 14.47547 120.95966 959 ft 137 kts 62°
2026-05-06 11:52 14.48019 120.96796 806 ft 133 kts 62°
2026-05-06 11:53 14.48488 120.97620 631 ft 133 kts 64°
2026-05-06 11:53 14.48948 120.98469 473 ft 138 kts 64°
2026-05-06 11:53 14.49414 120.99317 313 ft 137 kts 64°
2026-05-06 11:53 14.49892 121.00175 100 ft 135 kts 64°
2026-05-06 11:54 14.50322 121.00969 66 ft 110 kts 60°
2026-05-06 11:54 14.50574 121.01426 70 ft 52 kts 60°
2026-05-06 11:54 14.50750 121.01743 67 ft 49 kts 60°
2026-05-06 11:54 14.50912 121.02034 67 ft 41 kts 60°
2026-05-06 11:55 14.51025 121.02214 68 ft 26 kts 45°
2026-05-06 11:55 14.51141 121.02301 70 ft 17 kts 23°